This is the latest recevied weather packets stored in our database for station/object KD4MBW. If no packets are shown the sender has not sent any weather packets the latest 10 day(s).
| Time | Temp. | Humidity | Pressure | Rain* | Wind** | Luminosity | Snow |
|---|---|---|---|---|---|---|---|
| 1787491398 | 28.33° C | 99% | 1016.3 hPa | 0 mm | - | 297 W/m² | - |
| 1787491095 | 27.78° C | 99% | 1016 hPa | 0 mm | - | 289 W/m² | - |
| 1787490791 | 27.78° C | 99% | 1016.2 hPa | 0 mm | - | 269 W/m² | - |
| 1787490490 | 27.22° C | 99% | 1016 hPa | 0 mm | - | 261 W/m² | - |
| 1787490188 | 27.22° C | 99% | 1016 hPa | 0 mm | - | 239 W/m² | - |
| 1787489883 | 26.67° C | 99% | 1016 hPa | 0 mm | - | 227 W/m² | - |
| 1787489578 | 26.67° C | 99% | 1015.9 hPa | 0 mm | - | 190 W/m² | - |
| 1787489275 | 26.11° C | 99% | 1016.1 hPa | 0 mm | - | 161 W/m² | - |
| 1787488971 | 26.11° C | 99% | 1016 hPa | 0 mm | - | 116 W/m² | - |
| 1787488665 | 26.11° C | 99% | 1015.7 hPa | 0 mm | - | 110 W/m² | - |
| 1787488362 | 26.11° C | 99% | 1015.6 hPa | 0 mm | - | 99 W/m² | - |
| 1787488059 | 25.56° C | 99% | 1015.7 hPa | 0 mm | - | 89 W/m² | - |
| 1787487755 | 25.56° C | 99% | 1015.5 hPa | 0 mm | - | 86 W/m² | - |
| 1787487451 | 26.11° C | 99% | 1015.4 hPa | 0 mm | - | 79 W/m² | - |
| 1787487147 | 26.11° C | 99% | 1015.5 hPa | 0 mm | - | 72 W/m² | - |
| 1787486847 | 25.56° C | 99% | 1015.3 hPa | 0 mm | - | 63 W/m² | - |
| 1787486541 | 25.56° C | 99% | 1015.2 hPa | 0 mm | - | 55 W/m² | - |
| 1787486241 | 25.56° C | 99% | 1015.4 hPa | 0 mm | - | 47 W/m² | - |
| 1787485936 | 25.56° C | 99% | 1015.3 hPa | 0 mm | - | 40 W/m² | - |
| 1787485632 | 25.56° C | 99% | 1015.2 hPa | 0 mm | - | 33 W/m² | - |
| 1787485328 | 25° C | 99% | 1015.2 hPa | 0 mm | - | 26 W/m² | - |
| 1787485022 | 25° C | 99% | 1015.2 hPa | 0 mm | - | 18 W/m² | - |
| 1787484720 | 25° C | 99% | 1015.4 hPa | 0 mm | - | 14 W/m² | - |
| 1787484415 | 25° C | 99% | 1015.2 hPa | 0 mm | - | 9 W/m² | - |
| 1787484112 | 25° C | 99% | 1015.1 hPa | 0 mm | - | 6 W/m² | - |
* Rain latest hour (hover to see other rain measurements)
** Current wind speed in m/s (hover to see current wind gust speed)